KF5CFW Weather Reports


Display with metric or nautical units.
time (UTC)temp
F
wind
direction
speed
MPH
gust
MPH
rain 1hr
in
rain 24hr
in
rain mn
in
humidity
%
barometer
mb
20260509161554 82 360 0.0 1.0 0.00 0.00 0.00 54 1009.7
20260509160049 81 349 0.0 1.0 0.00 0.00 0.00 55 1009.6
20260509154557 80 249 0.0 1.0 0.00 0.00 0.00 55 1009.4
20260509153040 79 231 0.0 1.0 0.00 0.00 0.00 53 1009.5
20260509151535 78 232 0.0 1.0 0.00 0.00 0.00 52 1009.6
20260509150032 77 345 0.0 1.0 0.00 0.00 0.00 51 1009.7
20260509144527 76 356 0.0 1.0 0.00 0.00 0.00 48 1009.7
20260509143023 75 226 0.0 1.0 0.00 0.00 0.00 34 1009.8
20260509141518 74 352 0.0 1.0 0.00 0.00 0.00 14 1009.8
20260509140014 73 326 0.0 1.0 0.00 0.00 0.00 1 1009.7
20260509134511 71 321 0.0 1.0 0.00 0.00 0.00 1 1009.6
20260509133010 70 231 0.0 1.0 0.00 0.00 0.00 1 1009.6
20260509131510 70 348 0.0 1.0 0.00 0.00 0.00 1 1009.5
20260509130003 70 344 0.0 1.0 0.00 0.00 0.00 1 1009.5
20260509124609 69 342 0.0 0.0 0.00 0.00 0.00 1 1009.6
20260509123054 69 345 0.0 0.0 0.00 0.00 0.00 1 1009.4
20260509121616 69 342 0.0 0.0 0.00 0.00 0.00 1 1009.4
20260509120049 69 342 0.0 0.0 0.00 0.00 0.00 1 1009.2
20260509114546 69 342 0.0 0.0 0.00 0.00 0.00 1 1009.2
20260509113044 69 342 0.0 0.0 0.00 0.00 0.00 1 1008.9
20260509111536 69 342 0.0 0.0 0.00 0.00 0.00 1 1008.6
20260509110032 70 343 0.0 0.0 0.00 0.00 0.00 1 1008.4
20260509104527 70 342 0.0 0.0 0.00 0.00 0.00 1 1008.3
20260509103022 71 342 0.0 0.0 0.00 0.00 0.00 1 1008.4
20260509101523 72 343 0.0 0.0 0.00 0.00 0.00 1 1008.2
20260509100014 72 342 0.0 1.0 0.00 0.00 0.00 1 1008.5
20260509094510 72 352 0.0 1.0 0.00 0.00 0.00 1 1007.4
20260509093009 71 333 0.0 2.0 0.00 0.00 0.00 1 1006.1
20260509091505 71 204 0.0 2.0 0.00 0.00 0.00 1 1005.7
20260509090002 71 160 0.0 2.0 0.00 0.00 0.00 1 1006.1
20260509084602 71 139 0.0 2.0 0.00 0.00 0.00 1 1006.3
20260509083058 71 136 0.0 2.0 0.00 0.00 0.00 1 1006.2
20260509081547 71 148 0.0 3.0 0.00 0.00 0.00 1 1006.9
20260509080047 71 140 0.0 1.0 0.00 0.00 0.00 1 1008.1
20260509074539 71 318 0.0 1.0 0.00 0.00 0.00 1 1008.9
20260509073038 71 260 0.0 1.0 0.00 0.00 0.00 1 1009.5
20260509071531 71 259 0.0 0.0 0.00 0.00 0.00 1 1010.0
20260509070028 71 259 0.0 2.0 0.00 0.00 0.00 1 1010.6
20260509064521 71 5 0.0 0.0 0.00 0.00 0.00 1 1010.3
20260509063017 71 5 0.0 0.0 0.00 0.00 0.00 1 1010.1
20260509061519 71 5 0.0 0.0 0.00 0.00 0.00 1 1010.2
20260509060012 71 5 0.0 0.0 0.00 0.00 0.00 1 1010.5
20260509054503 71 5 0.0 0.0 0.00 0.00 0.00 1 1010.5
20260509053135 70 6 0.0 1.0 0.00 0.00 0.00 1 1010.4
20260509051555 70 98 0.0 0.0 0.00 0.00 0.00 1 1009.6
20260509050050 71 98 0.0 0.0 0.00 0.00 0.00 1 1009.6
20260509044548 71 98 0.0 0.0 0.00 0.00 0.00 1 1009.4
20260509043102 72 98 0.0 0.0 0.00 0.00 0.00 1 1009.4
20260509041556 72 99 0.0 0.0 0.00 0.00 0.00 1 1009.6
20260509040050 72 97 0.0 0.0 0.00 0.00 0.00 1 1009.9
20260509034559 72 98 0.0 0.0 0.00 0.00 0.00 1 1009.7
20260509033059 72 98 0.0 0.0 0.00 0.00 0.00 1 1009.0
20260509031605 73 98 0.0 1.0 0.00 0.00 0.00 3 1008.7
20260509030036 73 96 0.0 0.0 0.00 0.00 0.00 7 1008.6
20260509024530 73 148 0.0 0.0 0.00 0.00 0.00 8 1008.3
20260509023026 73 148 0.0 1.0 0.00 0.00 0.00 11 1008.0
20260509021522 73 148 0.0 1.0 0.00 0.00 0.00 12 1007.9
20260509020022 73 127 0.0 0.0 0.00 0.00 0.00 12 1008.1
20260509014513 73 127 0.0 0.0 0.00 0.00 0.00 12 1008.1
20260509013008 73 127 0.0 0.0 0.00 0.00 0.00 13 1008.0
20260509011504 73 127 0.0 0.0 0.00 0.00 0.00 16 1008.0
20260509010100 73 127 0.0 0.0 0.00 0.00 0.00 18 1007.6
20260509004600 73 127 0.0 1.0 0.00 0.00 0.00 22 1007.4
20260509003051 74 122 0.0 0.0 0.00 0.00 0.00 25 1007.3
20260509001546 74 124 0.0 1.0 0.00 0.00 0.00 29 1007.5
20260509000042 74 121 0.0 1.0 0.00 0.00 0.00 32 1007.4
20260508234538 74 72 0.0 0.0 0.00 0.00 0.00 34 1007.7
20260508233033 75 89 0.0 0.0 0.00 0.00 0.00 39 1007.7
20260508231529 75 84 0.0 0.0 0.00 0.00 0.00 44 1007.7
20260508230035 76 152 0.0 1.0 0.00 0.00 0.00 48 1007.7
20260508224526 76 167 0.0 1.0 0.00 0.00 0.00 50 1007.6
20260508223014 77 78 0.0 1.0 0.00 0.00 0.00 53 1007.6
20260508221525 77 162 0.0 1.0 0.00 0.00 0.00 53 1007.8
20260508220006 76 153 0.0 1.0 0.00 0.00 0.00 50 1008.0
20260508214501 75 170 0.0 1.0 0.00 0.00 0.00 52 1008.2
20260508213057 75 164 0.0 1.0 0.00 0.00 0.00 52 1008.3
20260508211553 75 142 0.0 2.0 0.00 0.00 0.00 50 1008.7
20260508210048 72 165 0.0 1.0 0.00 0.00 0.00 48 1008.9
20260508204544 70 243 0.0 1.0 0.00 0.00 0.00 39 1009.2
20260508203040 70 156 0.0 1.0 0.00 0.00 0.00 48 1008.6
20260508201535 71 157 0.0 1.0 0.00 0.00 0.00 54 1009.7
20260508200043 72 285 0.0 0.0 0.00 0.00 0.00 56 1010.5
20260508194526 73 153 0.0 1.0 0.00 0.00 0.00 55 1010.4
20260508193021 74 177 0.0 1.0 0.00 0.00 0.00 55 1010.2
20260508191519 74 154 0.0 2.0 0.00 0.00 0.00 56 1010.2
20260508190012 74 155 0.0 1.0 0.00 0.00 0.00 56 1010.5
20260508184508 75 151 0.0 1.0 0.00 0.00 0.00 56 1010.6
20260508183004 76 188 0.0 1.0 0.00 0.00 0.00 56 1010.8
20260508181600 76 153 0.0 2.0 0.00 0.00 0.00 55 1011.0
20260508180056 75 152 0.0 1.0 0.00 0.00 0.00 54 1010.9
20260508174550 74 151 0.0 0.0 0.00 0.00 0.00 54 1011.5
20260508173046 73 231 0.0 1.0 0.00 0.00 0.00 54 1011.7
20260508171550 74 98 0.0 1.0 0.00 0.00 0.00 55 1012.1
20260508170038 73 158 0.0 1.0 0.00 0.00 0.00 54 1012.1
20260508164537 71 151 0.0 1.0 0.00 0.00 0.00 51 1012.3
20260508163028 69 145 0.0 0.0 0.00 0.00 0.00 51 1012.5